Time,TemperatureF,DewpointF,PressureIn,WindDirection,WindDirectionDegrees,WindSpeedMPH,WindSpeedGustMPH,Humidity,HourlyPrecipIn,Conditions,Clouds,dailyrainin,SoftwareType,DateUTC
2013-10-19 00:05:00,45.9,45.1,29.82,NNW,339,0.0,0.0,97,0.04,,,0.00,Wunderground v.1.15,2013-10-19 04:05:00,
2013-10-19 00:10:00,45.8,44.7,29.82,NW,325,0.0,0.0,96,0.00,,,0.00,Wunderground v.1.15,2013-10-19 04:10:00,
2013-10-19 00:15:00,45.7,44.9,29.82,NW,325,0.0,0.0,97,0.00,,,0.00,Wunderground v.1.15,2013-10-19 04:15:00,
2013-10-19 00:20:00,45.6,44.8,29.82,NW,325,0.0,0.0,97,0.00,,,0.00,Wunderground v.1.15,2013-10-19 04:20:00,
2013-10-19 00:25:00,45.6,44.8,29.82,NW,325,0.0,0.0,97,0.00,,,0.00,Wunderground v.1.15,2013-10-19 04:25:00,
2013-10-19 00:30:00,45.6,44.8,29.82,NW,325,0.0,0.0,97,0.00,,,0.00,Wunderground v.1.15,2013-10-19 04:30:00,
2013-10-19 00:35:00,45.5,44.7,29.82,NW,325,0.0,0.0,97,0.00,,,0.00,Wunderground v.1.15,2013-10-19 04:35:00,
2013-10-19 00:40:00,45.4,44.6,29.83,NW,325,0.0,0.0,97,0.00,,,0.00,Wunderground v.1.15,2013-10-19 04:40:00,
2013-10-19 00:45:00,45.3,44.5,29.82,NW,325,0.0,0.0,97,0.00,,,0.01,Wunderground v.1.15,2013-10-19 04:45:00,
2013-10-19 00:50:00,45.3,44.5,29.82,NW,325,0.0,0.0,97,0.00,,,0.01,Wunderground v.1.15,2013-10-19 04:50:00,
2013-10-19 00:55:00,45.2,44.4,29.82,NW,325,0.0,0.0,97,0.00,,,0.01,Wunderground v.1.15,2013-10-19 04:55:00,
2013-10-19 01:05:00,45.1,44.3,29.82,NW,325,0.0,0.0,97,0.00,,,0.01,Wunderground v.1.15,2013-10-19 05:05:00,
2013-10-19 01:15:00,45.0,44.2,29.82,NW,325,0.0,0.0,97,0.00,,,0.01,Wunderground v.1.15,2013-10-19 05:15:00,
2013-10-19 01:20:00,45.1,44.3,29.82,NW,325,0.0,0.0,97,0.00,,,0.01,Wunderground v.1.15,2013-10-19 05:20:00,
2013-10-19 01:25:00,45.0,44.2,29.82,NW,325,0.0,0.0,97,0.00,,,0.01,Wunderground v.1.15,2013-10-19 05:25:00,
2013-10-19 01:35:00,45.0,44.2,29.81,NW,325,0.0,0.0,97,0.00,,,0.02,Wunderground v.1.15,2013-10-19 05:35:00,
2013-10-19 01:40:00,44.9,44.1,29.81,NW,325,0.0,0.0,97,0.00,,,0.02,Wunderground v.1.15,2013-10-19 05:40:00,
2013-10-19 01:45:00,44.9,44.1,29.81,NW,325,0.0,0.0,97,0.00,,,0.02,Wunderground v.1.15,2013-10-19 05:45:00,
2013-10-19 01:55:00,44.8,44.0,29.81,NW,325,0.0,0.0,97,0.00,,,0.02,Wunderground v.1.15,2013-10-19 05:55:00,
2013-10-19 02:00:00,44.8,44.0,29.81,NW,325,0.0,0.0,97,0.00,,,0.02,Wunderground v.1.15,2013-10-19 06:00:00,
2013-10-19 02:05:00,44.7,43.9,29.81,NW,325,0.0,0.0,97,0.00,,,0.02,Wunderground v.1.15,2013-10-19 06:05:00,
2013-10-19 02:15:00,44.6,43.8,29.81,NW,325,0.0,0.0,97,0.00,,,0.02,Wunderground v.1.15,2013-10-19 06:15:00,
2013-10-19 02:20:00,44.6,43.8,29.81,NW,325,0.0,0.0,97,0.00,,,0.02,Wunderground v.1.15,2013-10-19 06:20:00,
2013-10-19 02:25:00,44.6,43.8,29.81,NW,325,0.0,0.0,97,0.00,,,0.02,Wunderground v.1.15,2013-10-19 06:25:00,
2013-10-19 02:30:00,44.5,43.7,29.81,NW,325,0.0,0.0,97,0.00,,,0.02,Wunderground v.1.15,2013-10-19 06:30:00,
2013-10-19 02:35:00,44.5,43.7,29.81,NW,325,0.0,0.0,97,0.00,,,0.02,Wunderground v.1.15,2013-10-19 06:35:00,
2013-10-19 02:45:00,44.5,43.7,29.80,NW,325,0.0,0.0,97,0.00,,,0.02,Wunderground v.1.15,2013-10-19 06:45:00,
2013-10-19 02:50:00,44.4,43.6,29.80,NW,325,0.0,0.0,97,0.00,,,0.02,Wunderground v.1.15,2013-10-19 06:50:00,
2013-10-19 02:55:00,44.4,43.6,29.81,NW,325,0.0,0.0,97,0.00,,,0.02,Wunderground v.1.15,2013-10-19 06:55:00,
2013-10-19 03:00:00,44.4,43.6,29.80,NW,325,0.0,0.0,97,0.00,,,0.02,Wunderground v.1.15,2013-10-19 07:00:00,
2013-10-19 03:05:00,44.4,43.6,29.81,NW,325,0.0,0.0,97,0.00,,,0.02,Wunderground v.1.15,2013-10-19 07:05:00,
2013-10-19 03:15:00,44.3,43.5,29.81,NW,325,0.0,0.0,97,0.00,,,0.03,Wunderground v.1.15,2013-10-19 07:15:00,
2013-10-19 03:20:00,44.2,43.4,29.81,NW,325,0.0,0.0,97,0.00,,,0.03,Wunderground v.1.15,2013-10-19 07:20:00,
2013-10-19 03:25:00,44.1,43.3,29.80,NW,325,0.0,0.0,97,0.00,,,0.03,Wunderground v.1.15,2013-10-19 07:25:00,
2013-10-19 03:30:00,44.1,43.3,29.81,NW,325,0.0,0.0,97,0.00,,,0.03,Wunderground v.1.15,2013-10-19 07:30:00,
2013-10-19 03:35:00,44.0,43.2,29.80,NW,325,0.0,0.0,97,0.00,,,0.03,Wunderground v.1.15,2013-10-19 07:35:00,
2013-10-19 03:40:00,43.9,43.1,29.80,NW,325,0.0,0.0,97,0.00,,,0.03,Wunderground v.1.15,2013-10-19 07:40:00,
2013-10-19 03:50:00,43.8,43.0,29.80,NW,325,0.0,0.0,97,0.00,,,0.03,Wunderground v.1.15,2013-10-19 07:50:00,
2013-10-19 03:55:00,43.8,43.0,29.80,NW,325,0.0,0.0,97,0.00,,,0.03,Wunderground v.1.15,2013-10-19 07:55:00,
2013-10-19 04:00:00,43.8,43.0,29.80,NW,325,0.0,0.0,97,0.00,,,0.03,Wunderground v.1.15,2013-10-19 08:00:00,
2013-10-19 04:05:00,43.8,43.0,29.80,NW,325,0.0,0.0,97,0.00,,,0.03,Wunderground v.1.15,2013-10-19 08:05:00,
2013-10-19 04:15:00,43.8,43.0,29.79,NW,325,0.0,0.0,97,0.00,,,0.03,Wunderground v.1.15,2013-10-19 08:15:00,
2013-10-19 04:20:00,43.7,42.9,29.79,NW,325,0.0,0.0,97,0.00,,,0.03,Wunderground v.1.15,2013-10-19 08:20:00,
2013-10-19 04:25:00,43.7,42.9,29.79,NW,325,0.0,0.0,97,0.00,,,0.03,Wunderground v.1.15,2013-10-19 08:25:00,
2013-10-19 04:35:00,43.8,43.0,29.79,NW,325,0.0,0.0,97,0.00,,,0.03,Wunderground v.1.15,2013-10-19 08:35:00,
2013-10-19 04:40:00,43.8,43.0,29.79,NW,325,0.0,0.0,97,0.00,,,0.03,Wunderground v.1.15,2013-10-19 08:40:00,
2013-10-19 04:45:00,43.8,43.0,29.79,NW,325,0.0,0.0,97,0.00,,,0.03,Wunderground v.1.15,2013-10-19 08:45:00,
2013-10-19 04:55:00,43.7,42.9,29.78,NW,325,0.0,0.0,97,0.00,,,0.03,Wunderground v.1.15,2013-10-19 08:55:00,
2013-10-19 05:00:00,43.7,42.9,29.78,NW,325,0.0,0.0,97,0.00,,,0.03,Wunderground v.1.15,2013-10-19 09:00:00,
2013-10-19 05:05:00,43.8,43.0,29.78,NW,325,0.0,0.0,97,0.00,,,0.03,Wunderground v.1.15,2013-10-19 09:05:00,
2013-10-19 05:15:00,43.7,42.9,29.78,NW,325,0.0,0.0,97,0.00,,,0.03,Wunderground v.1.15,2013-10-19 09:15:00,
2013-10-19 05:20:00,43.7,42.9,29.78,NW,325,0.0,0.0,97,0.00,,,0.03,Wunderground v.1.15,2013-10-19 09:20:00,
2013-10-19 05:30:00,43.6,42.8,29.78,NW,325,0.0,0.0,97,0.00,,,0.03,Wunderground v.1.15,2013-10-19 09:30:00,
2013-10-19 05:35:00,43.7,42.9,29.77,NW,325,0.0,0.0,97,0.00,,,0.03,Wunderground v.1.15,2013-10-19 09:35:00,
2013-10-19 05:40:00,43.7,42.9,29.77,NNW,344,0.0,0.0,97,0.00,,,0.03,Wunderground v.1.15,2013-10-19 09:40:00,
2013-10-19 05:45:00,43.7,42.9,29.78,NNW,344,0.0,0.0,97,0.00,,,0.03,Wunderground v.1.15,2013-10-19 09:45:00,
2013-10-19 05:50:00,43.7,42.9,29.77,NNW,344,0.0,0.0,97,0.00,,,0.03,Wunderground v.1.15,2013-10-19 09:50:00,
2013-10-19 06:00:00,43.7,42.9,29.77,NNW,344,0.0,0.0,97,0.00,,,0.03,Wunderground v.1.15,2013-10-19 10:00:00,
2013-10-19 06:05:00,43.9,43.4,29.78,NNW,344,0.0,0.0,98,0.00,,,0.03,Wunderground v.1.15,2013-10-19 10:05:00,
2013-10-19 06:15:00,44.1,43.6,29.77,NE,53,0.0,0.0,98,0.08,,,0.05,Wunderground v.1.15,2013-10-19 10:15:00,
2013-10-19 06:20:00,44.2,43.7,29.77,NE,52,0.0,0.0,98,0.08,,,0.05,Wunderground v.1.15,2013-10-19 10:20:00,
2013-10-19 06:25:00,44.2,43.7,29.77,NE,52,0.0,0.0,98,0.27,,,0.07,Wunderground v.1.15,2013-10-19 10:25:00,
2013-10-19 06:35:00,44.1,43.6,29.77,NE,52,0.0,0.0,98,0.28,,,0.11,Wunderground v.1.15,2013-10-19 10:35:00,
2013-10-19 06:40:00,43.9,43.4,29.77,NE,53,0.0,0.0,98,0.19,,,0.13,Wunderground v.1.15,2013-10-19 10:40:00,
2013-10-19 06:45:00,43.8,43.3,29.77,NE,53,0.0,0.0,98,0.19,,,0.16,Wunderground v.1.15,2013-10-19 10:45:00,
2013-10-19 06:50:00,43.7,42.9,29.77,NE,53,0.0,0.0,97,0.58,,,0.19,Wunderground v.1.15,2013-10-19 10:50:00,
2013-10-19 07:00:00,43.6,43.1,29.77,NE,53,0.0,0.0,98,0.14,,,0.23,Wunderground v.1.15,2013-10-19 11:00:00,
2013-10-19 07:05:00,43.4,42.9,29.77,NE,53,0.0,0.0,98,0.23,,,0.26,Wunderground v.1.15,2013-10-19 11:05:00,
2013-10-19 07:15:00,42.9,42.1,29.77,NE,53,0.0,0.0,97,0.35,,,0.31,Wunderground v.1.15,2013-10-19 11:15:00,
2013-10-19 07:20:00,42.5,41.7,29.77,NE,52,0.0,0.0,97,0.39,,,0.34,Wunderground v.1.15,2013-10-19 11:20:00,
2013-10-19 07:25:00,42.3,41.5,29.77,NE,52,0.0,0.0,97,0.14,,,0.36,Wunderground v.1.15,2013-10-19 11:25:00,
2013-10-19 07:30:00,42.0,41.2,29.77,NE,53,0.0,0.0,97,0.21,,,0.37,Wunderground v.1.15,2013-10-19 11:30:00,
2013-10-19 07:40:00,41.8,41.0,29.77,NE,53,0.0,0.0,97,0.12,,,0.39,Wunderground v.1.15,2013-10-19 11:40:00,
2013-10-19 07:45:00,41.8,41.0,29.78,NE,53,0.0,0.0,97,0.21,,,0.41,Wunderground v.1.15,2013-10-19 11:45:00,
2013-10-19 07:50:00,41.9,41.1,29.78,NE,53,0.0,0.0,97,0.12,,,0.42,Wunderground v.1.15,2013-10-19 11:50:00,
2013-10-19 07:55:00,41.8,41.0,29.78,NE,52,0.0,0.0,97,0.17,,,0.43,Wunderground v.1.15,2013-10-19 11:55:00,
2013-10-19 08:00:00,41.8,41.0,29.77,NE,53,0.0,0.0,97,0.07,,,0.43,Wunderground v.1.15,2013-10-19 12:00:00,
2013-10-19 08:05:00,41.9,41.1,29.78,NE,52,0.0,0.0,97,0.04,,,0.43,Wunderground v.1.15,2013-10-19 12:05:00,
2013-10-19 08:15:00,41.9,41.1,29.77,NE,53,0.0,0.0,97,0.04,,,0.44,Wunderground v.1.15,2013-10-19 12:15:00,
2013-10-19 08:20:00,41.9,41.1,29.77,NE,53,0.0,0.0,97,0.07,,,0.45,Wunderground v.1.15,2013-10-19 12:20:00,
2013-10-19 08:25:00,41.9,41.1,29.78,NE,52,0.0,0.0,97,0.06,,,0.45,Wunderground v.1.15,2013-10-19 12:25:00,
2013-10-19 08:30:00,42.0,41.2,29.78,NE,53,0.0,0.0,97,0.04,,,0.45,Wunderground v.1.15,2013-10-19 12:30:00,
2013-10-19 08:35:00,42.0,41.2,29.79,NE,52,0.0,0.0,97,0.00,,,0.46,Wunderground v.1.15,2013-10-19 12:35:00,
2013-10-19 08:45:00,42.1,41.6,29.79,NE,52,0.0,0.0,98,0.15,,,0.48,Wunderground v.1.15,2013-10-19 12:45:00,
2013-10-19 08:50:00,42.2,41.7,29.78,NE,53,0.0,0.0,98,0.09,,,0.48,Wunderground v.1.15,2013-10-19 12:50:00,
2013-10-19 08:55:00,42.2,41.7,29.78,NE,53,0.0,0.0,98,0.05,,,0.48,Wunderground v.1.15,2013-10-19 12:55:00,
2013-10-19 09:00:00,42.1,41.6,29.78,NE,53,0.0,0.0,98,0.04,,,0.48,Wunderground v.1.15,2013-10-19 13:00:00,
2013-10-19 09:05:00,42.1,41.6,29.78,NE,53,0.0,0.0,98,0.00,,,0.48,Wunderground v.1.15,2013-10-19 13:05:00,
2013-10-19 09:15:00,42.3,41.8,29.78,NE,52,0.0,0.0,98,0.00,,,0.48,Wunderground v.1.15,2013-10-19 13:15:00,
2013-10-19 09:20:00,42.3,41.8,29.78,NE,53,0.0,0.0,98,0.00,,,0.48,Wunderground v.1.15,2013-10-19 13:20:00,
2013-10-19 09:25:00,42.4,41.9,29.79,NE,53,0.0,0.0,98,0.00,,,0.48,Wunderground v.1.15,2013-10-19 13:25:00,
2013-10-19 09:30:00,42.5,42.0,29.78,NE,52,0.0,0.0,98,0.00,,,0.48,Wunderground v.1.15,2013-10-19 13:30:00,
2013-10-19 09:40:00,42.5,42.0,29.78,NE,53,0.0,0.0,98,0.00,,,0.48,Wunderground v.1.15,2013-10-19 13:40:00,
2013-10-19 09:45:00,42.5,42.0,29.78,NE,53,0.0,0.0,98,0.00,,,0.48,Wunderground v.1.15,2013-10-19 13:45:00,
2013-10-19 09:50:00,42.5,42.0,29.78,NE,49,0.0,0.0,98,0.00,,,0.48,Wunderground v.1.15,2013-10-19 13:50:00,
2013-10-19 10:00:00,42.7,42.2,29.78,NE,49,0.0,0.0,98,0.00,,,0.48,Wunderground v.1.15,2013-10-19 14:00:00,
2013-10-19 10:05:00,42.9,42.4,29.78,ENE,57,0.0,0.0,98,0.00,,,0.48,Wunderground v.1.15,2013-10-19 14:05:00,
2013-10-19 10:15:00,43.3,42.8,29.78,NE,56,0.0,0.0,98,0.00,,,0.48,Wunderground v.1.15,2013-10-19 14:15:00,
2013-10-19 10:25:00,43.6,43.1,29.78,WSW,240,1.0,6.0,98,0.00,,,0.48,Wunderground v.1.15,2013-10-19 14:25:00,
2013-10-19 10:30:00,43.4,42.9,29.78,WSW,254,4.0,5.0,98,0.00,,,0.48,Wunderground v.1.15,2013-10-19 14:30:00,
2013-10-19 10:35:00,44.0,43.5,29.77,WSW,250,5.0,6.0,98,0.00,,,0.48,Wunderground v.1.15,2013-10-19 14:35:00,
2013-10-19 10:40:00,44.7,43.9,29.77,WSW,238,6.0,9.0,97,0.00,,,0.48,Wunderground v.1.15,2013-10-19 14:40:00,
2013-10-19 10:45:00,45.4,43.8,29.77,WSW,240,7.0,9.0,94,0.00,,,0.48,Wunderground v.1.15,2013-10-19 14:45:00,
2013-10-19 10:50:00,46.1,43.3,29.76,WSW,242,8.0,8.0,90,0.00,,,0.48,Wunderground v.1.15,2013-10-19 14:50:00,
2013-10-19 11:00:00,46.6,42.0,29.76,WSW,239,8.0,9.0,84,0.00,,,0.48,Wunderground v.1.15,2013-10-19 15:00:00,
2013-10-19 11:05:00,46.9,42.0,29.76,WSW,238,9.0,9.0,83,0.00,,,0.48,Wunderground v.1.15,2013-10-19 15:05:00,
2013-10-19 11:15:00,47.5,42.6,29.76,WSW,242,9.0,11.0,83,0.00,,,0.48,Wunderground v.1.15,2013-10-19 15:15:00,
2013-10-19 11:20:00,47.0,42.1,29.76,WSW,256,9.0,9.0,83,0.00,,,0.48,Wunderground v.1.15,2013-10-19 15:20:00,
2013-10-19 11:30:00,46.3,41.7,29.76,WSW,254,4.0,5.0,84,0.00,,,0.49,Wunderground v.1.15,2013-10-19 15:30:00,
2013-10-19 11:35:00,47.1,42.5,29.76,West,280,6.0,12.0,84,0.00,,,0.49,Wunderground v.1.15,2013-10-19 15:35:00,
2013-10-19 11:40:00,47.5,42.0,29.76,WSW,248,8.0,8.0,81,0.00,,,0.49,Wunderground v.1.15,2013-10-19 15:40:00,
2013-10-19 11:45:00,47.6,41.4,29.76,West,263,8.0,8.0,79,0.00,,,0.49,Wunderground v.1.15,2013-10-19 15:45:00,
2013-10-19 11:50:00,47.6,41.1,29.76,WSW,252,8.0,8.0,78,0.00,,,0.49,Wunderground v.1.15,2013-10-19 15:50:00,
2013-10-19 11:55:00,47.5,40.6,29.76,West,260,8.0,8.0,77,0.00,,,0.49,Wunderground v.1.15,2013-10-19 15:55:00,
2013-10-19 12:05:00,47.7,41.2,29.75,WSW,242,8.0,10.0,78,0.00,,,0.49,Wunderground v.1.15,2013-10-19 16:05:00,
2013-10-19 12:15:00,47.9,40.4,29.76,WSW,250,8.0,8.0,75,0.00,,,0.49,Wunderground v.1.15,2013-10-19 16:15:00,
2013-10-19 12:25:00,47.9,39.7,29.76,West,264,7.0,8.0,73,0.00,,,0.49,Wunderground v.1.15,2013-10-19 16:25:00,
2013-10-19 12:30:00,47.9,38.6,29.76,West,259,7.0,8.0,70,0.00,,,0.49,Wunderground v.1.15,2013-10-19 16:30:00,
2013-10-19 12:35:00,47.8,39.2,29.76,West,259,8.0,8.0,72,0.00,,,0.49,Wunderground v.1.15,2013-10-19 16:35:00,
2013-10-19 12:45:00,48.0,40.1,29.75,WSW,250,7.0,8.0,74,0.00,,,0.49,Wunderground v.1.15,2013-10-19 16:45:00,
2013-10-19 12:50:00,48.0,37.9,29.75,West,259,7.0,7.0,68,0.00,,,0.49,Wunderground v.1.15,2013-10-19 16:50:00,
2013-10-19 12:55:00,48.1,37.3,29.75,West,265,7.0,9.0,66,0.00,,,0.49,Wunderground v.1.15,2013-10-19 16:55:00,
2013-10-19 13:00:00,48.1,38.4,29.75,WSW,256,7.0,7.0,69,0.00,,,0.49,Wunderground v.1.15,2013-10-19 17:00:00,
2013-10-19 13:05:00,48.2,39.2,29.75,SW,234,7.0,10.0,71,0.00,,,0.49,Wunderground v.1.15,2013-10-19 17:05:00,
2013-10-19 13:15:00,48.3,39.7,29.75,West,264,6.0,8.0,72,0.00,,,0.49,Wunderground v.1.15,2013-10-19 17:15:00,
2013-10-19 13:20:00,48.4,39.8,29.75,WSW,249,6.0,6.0,72,0.00,,,0.49,Wunderground v.1.15,2013-10-19 17:20:00,
2013-10-19 13:25:00,48.5,39.5,29.75,West,261,6.0,6.0,71,0.00,,,0.49,Wunderground v.1.15,2013-10-19 17:25:00,
2013-10-19 13:30:00,48.4,37.9,29.75,WSW,238,6.0,6.0,67,0.00,,,0.49,Wunderground v.1.15,2013-10-19 17:30:00,
2013-10-19 13:35:00,48.4,37.9,29.75,WSW,242,6.0,11.0,67,0.00,,,0.49,Wunderground v.1.15,2013-10-19 17:35:00,
2013-10-19 13:45:00,48.5,37.7,29.74,WSW,248,5.0,6.0,66,0.00,,,0.49,Wunderground v.1.15,2013-10-19 17:45:00,
2013-10-19 13:50:00,48.5,37.3,29.74,WSW,253,5.0,5.0,65,0.00,,,0.49,Wunderground v.1.15,2013-10-19 17:50:00,
2013-10-19 13:55:00,48.4,37.2,29.74,West,267,5.0,8.0,65,0.00,,,0.49,Wunderground v.1.15,2013-10-19 17:55:00,
2013-10-19 14:00:00,48.6,37.7,29.74,WSW,254,4.0,4.0,66,0.00,,,0.49,Wunderground v.1.15,2013-10-19 18:00:00,
2013-10-19 14:05:00,48.3,37.1,29.74,WSW,243,4.0,6.0,65,0.00,,,0.49,Wunderground v.1.15,2013-10-19 18:05:00,
2013-10-19 14:15:00,48.6,39.3,29.74,West,277,5.0,5.0,70,0.00,,,0.49,Wunderground v.1.15,2013-10-19 18:15:00,
2013-10-19 14:20:00,48.8,37.9,29.74,WNW,282,4.0,5.0,66,0.00,,,0.49,Wunderground v.1.15,2013-10-19 18:20:00,
2013-10-19 14:25:00,49.3,39.2,29.73,WSW,247,3.0,5.0,68,0.00,,,0.49,Wunderground v.1.15,2013-10-19 18:25:00,
2013-10-19 14:30:00,49.0,37.3,29.73,West,259,4.0,4.0,64,0.00,,,0.49,Wunderground v.1.15,2013-10-19 18:30:00,
2013-10-19 14:35:00,48.6,37.4,29.73,WSW,244,5.0,5.0,65,0.00,,,0.49,Wunderground v.1.15,2013-10-19 18:35:00,
2013-10-19 14:40:00,48.4,38.7,29.73,WSW,247,5.0,5.0,69,0.00,,,0.49,Wunderground v.1.15,2013-10-19 18:40:00,
2013-10-19 14:50:00,48.5,37.3,29.73,West,263,5.0,5.0,65,0.00,,,0.49,Wunderground v.1.15,2013-10-19 18:50:00,
2013-10-19 14:55:00,48.4,37.6,29.73,WSW,246,6.0,6.0,66,0.00,,,0.49,Wunderground v.1.15,2013-10-19 18:55:00,
2013-10-19 15:00:00,48.8,37.6,29.73,WSW,239,6.0,6.0,65,0.00,,,0.49,Wunderground v.1.15,2013-10-19 19:00:00,
2013-10-19 15:10:00,49.3,38.8,29.73,WSW,245,6.0,6.0,67,0.00,,,0.49,Wunderground v.1.15,2013-10-19 19:10:00,
2013-10-19 15:15:00,49.1,37.0,29.72,WSW,241,7.0,8.0,63,0.00,,,0.49,Wunderground v.1.15,2013-10-19 19:15:00,
2013-10-19 15:25:00,49.2,38.7,29.72,WSW,245,6.0,9.0,67,0.00,,,0.49,Wunderground v.1.15,2013-10-19 19:25:00,
2013-10-19 15:30:00,49.5,37.8,29.72,WSW,241,6.0,6.0,64,0.00,,,0.49,Wunderground v.1.15,2013-10-19 19:30:00,
2013-10-19 15:35:00,49.4,38.9,29.72,WSW,244,6.0,6.0,67,0.00,,,0.49,Wunderground v.1.15,2013-10-19 19:35:00,
2013-10-19 15:40:00,49.0,37.3,29.72,WSW,244,5.0,5.0,64,0.00,,,0.49,Wunderground v.1.15,2013-10-19 19:40:00,
2013-10-19 15:45:00,48.7,38.2,29.72,WSW,250,5.0,6.0,67,0.00,,,0.49,Wunderground v.1.15,2013-10-19 19:45:00,
2013-10-19 15:55:00,49.2,36.7,29.72,West,260,5.0,5.0,62,0.00,,,0.49,Wunderground v.1.15,2013-10-19 19:55:00,
2013-10-19 16:00:00,49.8,38.5,29.72,WSW,254,6.0,6.0,65,0.00,,,0.49,Wunderground v.1.15,2013-10-19 20:00:00,
2013-10-19 16:05:00,49.9,36.1,29.72,WSW,244,5.0,8.0,59,0.00,,,0.49,Wunderground v.1.15,2013-10-19 20:05:00,
2013-10-19 16:15:00,49.5,36.6,29.72,West,261,6.0,6.0,61,0.00,,,0.49,Wunderground v.1.15,2013-10-19 20:15:00,
2013-10-19 16:20:00,49.1,38.6,29.72,WSW,242,5.0,5.0,67,0.00,,,0.49,Wunderground v.1.15,2013-10-19 20:20:00,
2013-10-19 16:30:00,48.7,37.1,29.72,WSW,248,4.0,5.0,64,0.00,,,0.49,Wunderground v.1.15,2013-10-19 20:30:00,
2013-10-19 16:35:00,48.8,38.3,29.72,WSW,250,5.0,8.0,67,0.00,,,0.49,Wunderground v.1.15,2013-10-19 20:35:00,
2013-10-19 16:40:00,48.8,38.3,29.72,WSW,250,6.0,6.0,67,0.00,,,0.49,Wunderground v.1.15,2013-10-19 20:40:00,
2013-10-19 16:45:00,48.9,38.0,29.72,WSW,237,6.0,8.0,66,0.00,,,0.49,Wunderground v.1.15,2013-10-19 20:45:00,
2013-10-19 16:50:00,48.8,37.2,29.72,WSW,243,6.0,6.0,64,0.00,,,0.49,Wunderground v.1.15,2013-10-19 20:50:00,
2013-10-19 17:00:00,48.6,39.6,29.72,WSW,249,9.0,15.0,71,0.00,,,0.49,Wunderground v.1.15,2013-10-19 21:00:00,
2013-10-19 17:05:00,47.9,38.6,29.72,WSW,239,14.0,16.0,70,0.00,,,0.49,Wunderground v.1.15,2013-10-19 21:05:00,
2013-10-19 17:15:00,47.0,37.7,29.73,WSW,243,15.0,16.0,70,0.00,,,0.49,Wunderground v.1.15,2013-10-19 21:15:00,
2013-10-19 17:20:00,46.9,37.3,29.73,WSW,250,12.0,12.0,69,0.00,,,0.49,Wunderground v.1.15,2013-10-19 21:20:00,
2013-10-19 17:25:00,47.2,36.8,29.73,West,263,9.0,12.0,67,0.00,,,0.49,Wunderground v.1.15,2013-10-19 21:25:00,
2013-10-19 17:35:00,47.2,35.6,29.74,WSW,255,3.0,5.0,64,0.00,,,0.49,Wunderground v.1.15,2013-10-19 21:35:00,
2013-10-19 17:40:00,47.7,36.9,29.73,WSW,248,5.0,6.0,66,0.00,,,0.49,Wunderground v.1.15,2013-10-19 21:40:00,
2013-10-19 17:45:00,47.7,38.0,29.74,WSW,250,7.0,8.0,69,0.00,,,0.49,Wunderground v.1.15,2013-10-19 21:45:00,
2013-10-19 17:50:00,47.3,38.7,29.74,West,277,8.0,8.0,72,0.00,,,0.49,Wunderground v.1.15,2013-10-19 21:50:00,
2013-10-19 17:55:00,46.8,37.5,29.74,WNW,282,8.0,8.0,70,0.00,,,0.49,Wunderground v.1.15,2013-10-19 21:55:00,
2013-10-19 18:00:00,46.5,38.0,29.74,NW,304,7.0,7.0,72,0.00,,,0.49,Wunderground v.1.15,2013-10-19 22:00:00,
2013-10-19 18:05:00,46.0,36.4,29.74,NNW,336,4.0,7.0,69,0.00,,,0.49,Wunderground v.1.15,2013-10-19 22:05:00,
2013-10-19 18:15:00,45.4,35.8,29.73,NNW,336,1.0,2.0,69,0.00,,,0.49,Wunderground v.1.15,2013-10-19 22:15:00,
2013-10-19 18:20:00,45.0,36.9,29.73,North,9,0.0,0.0,73,0.00,,,0.49,Wunderground v.1.15,2013-10-19 22:20:00,
2013-10-19 18:25:00,44.4,36.6,29.73,North,9,0.0,0.0,74,0.00,,,0.49,Wunderground v.1.15,2013-10-19 22:25:00,
2013-10-19 18:30:00,43.8,36.4,29.74,North,9,0.0,0.0,75,0.00,,,0.49,Wunderground v.1.15,2013-10-19 22:30:00,
2013-10-19 18:40:00,42.8,36.7,29.74,North,9,0.0,0.0,79,0.00,,,0.49,Wunderground v.1.15,2013-10-19 22:40:00,
2013-10-19 18:45:00,42.3,36.3,29.74,North,9,0.0,0.0,79,0.00,,,0.49,Wunderground v.1.15,2013-10-19 22:45:00,
2013-10-19 18:50:00,41.9,36.2,29.74,North,9,0.0,0.0,80,0.00,,,0.49,Wunderground v.1.15,2013-10-19 22:50:00,
2013-10-19 18:55:00,41.5,36.4,29.74,North,9,0.0,0.0,82,0.00,,,0.49,Wunderground v.1.15,2013-10-19 22:55:00,
2013-10-19 19:05:00,40.6,36.1,29.74,North,9,0.0,0.0,84,0.00,,,0.49,Wunderground v.1.15,2013-10-19 23:05:00,
2013-10-19 19:20:00,40.0,36.2,29.74,North,9,0.0,0.0,86,0.00,,,0.49,Wunderground v.1.15,2013-10-19 23:20:00,
2013-10-19 19:25:00,39.7,35.9,29.74,North,9,0.0,0.0,86,0.00,,,0.49,Wunderground v.1.15,2013-10-19 23:25:00,
2013-10-19 19:30:00,39.5,35.7,29.74,North,9,0.0,0.0,86,0.00,,,0.49,Wunderground v.1.15,2013-10-19 23:30:00,
2013-10-19 19:35:00,39.4,35.9,29.74,North,9,0.0,0.0,87,0.00,,,0.49,Wunderground v.1.15,2013-10-19 23:35:00,
2013-10-19 19:40:00,39.2,35.7,29.75,North,9,0.0,0.0,87,0.00,,,0.49,Wunderground v.1.15,2013-10-19 23:40:00,
2013-10-19 19:50:00,38.7,35.5,29.75,North,9,0.0,0.0,88,0.00,,,0.49,Wunderground v.1.15,2013-10-19 23:50:00,
2013-10-19 19:55:00,38.4,35.2,29.75,North,9,0.0,0.0,88,0.00,,,0.49,Wunderground v.1.15,2013-10-19 23:55:00,
2013-10-19 20:00:00,38.2,35.0,29.75,North,9,0.0,0.0,88,0.00,,,0.49,Wunderground v.1.15,2013-10-20 00:00:00,
2013-10-19 20:05:00,38.0,34.8,29.75,North,9,0.0,0.0,88,0.00,,,0.49,Wunderground v.1.15,2013-10-20 00:05:00,
2013-10-19 20:15:00,37.8,35.1,29.75,North,9,0.0,0.0,90,0.00,,,0.49,Wunderground v.1.15,2013-10-20 00:15:00,
2013-10-19 20:20:00,37.7,35.0,29.75,North,9,0.0,0.0,90,0.00,,,0.49,Wunderground v.1.15,2013-10-20 00:20:00,
2013-10-19 20:30:00,37.7,35.3,29.75,North,9,0.0,0.0,91,0.00,,,0.49,Wunderground v.1.15,2013-10-20 00:30:00,
2013-10-19 20:35:00,37.8,35.1,29.75,North,9,0.0,0.0,90,0.00,,,0.49,Wunderground v.1.15,2013-10-20 00:35:00,
2013-10-19 20:40:00,37.9,35.2,29.75,North,9,0.0,0.0,90,0.00,,,0.49,Wunderground v.1.15,2013-10-20 00:40:00,
2013-10-19 20:45:00,37.9,35.5,29.76,North,9,0.0,0.0,91,0.00,,,0.49,Wunderground v.1.15,2013-10-20 00:45:00,
2013-10-19 20:55:00,43.3,41.7,29.77,WSW,238,5.0,12.0,94,0.00,,,0.49,Wunderground v.1.15,2013-10-20 00:55:00,
2013-10-19 21:00:00,45.2,41.9,29.77,SW,231,11.0,11.0,88,0.00,,,0.49,Wunderground v.1.15,2013-10-20 01:00:00,
2013-10-19 21:05:00,44.0,40.4,29.77,SW,234,13.0,19.0,87,0.00,,,0.50,Wunderground v.1.15,2013-10-20 01:05:00,
2013-10-19 21:15:00,44.2,39.7,29.77,SW,236,15.0,20.0,84,0.00,,,0.50,Wunderground v.1.15,2013-10-20 01:15:00,
2013-10-19 21:20:00,44.0,39.8,29.77,WSW,237,11.0,11.0,85,0.05,,,0.51,Wunderground v.1.15,2013-10-20 01:20:00,
2013-10-19 21:30:00,42.5,39.2,29.76,SE,129,0.0,0.0,88,0.06,,,0.52,Wunderground v.1.15,2013-10-20 01:30:00,
2013-10-19 21:35:00,41.7,39.0,29.75,SE,129,0.0,0.0,90,0.04,,,0.52,Wunderground v.1.15,2013-10-20 01:35:00,
2013-10-19 21:40:00,41.2,38.8,29.75,SE,130,0.0,0.0,91,0.00,,,0.52,Wunderground v.1.15,2013-10-20 01:40:00,
2013-10-19 21:45:00,40.7,38.6,29.75,SE,130,0.0,0.0,92,0.00,,,0.52,Wunderground v.1.15,2013-10-20 01:45:00,
2013-10-19 21:50:00,40.4,38.3,29.75,SE,130,0.0,0.0,92,0.00,,,0.52,Wunderground v.1.15,2013-10-20 01:50:00,
2013-10-19 22:00:00,40.1,38.2,29.76,SE,130,0.0,0.0,93,0.00,,,0.52,Wunderground v.1.15,2013-10-20 02:00:00,
2013-10-19 22:05:00,40.1,38.5,29.75,SE,129,0.0,0.0,94,0.00,,,0.52,Wunderground v.1.15,2013-10-20 02:05:00,
2013-10-19 22:15:00,39.9,38.3,29.75,SE,128,0.0,0.0,94,0.00,,,0.52,Wunderground v.1.15,2013-10-20 02:15:00,
2013-10-19 22:20:00,39.9,38.3,29.75,SE,128,0.0,0.0,94,0.00,,,0.52,Wunderground v.1.15,2013-10-20 02:20:00,
2013-10-19 22:25:00,39.8,38.5,29.76,SE,128,0.0,0.0,95,0.00,,,0.52,Wunderground v.1.15,2013-10-20 02:25:00,
2013-10-19 22:35:00,39.8,38.5,29.76,SE,128,0.0,0.0,95,0.00,,,0.52,Wunderground v.1.15,2013-10-20 02:35:00,
2013-10-19 22:40:00,40.4,39.1,29.76,WSW,242,1.0,3.0,95,0.00,,,0.52,Wunderground v.1.15,2013-10-20 02:40:00,
2013-10-19 22:50:00,43.1,41.8,29.77,West,271,6.0,6.0,95,0.00,,,0.53,Wunderground v.1.15,2013-10-20 02:50:00,
2013-10-19 22:55:00,42.7,40.5,29.77,WSW,252,7.0,8.0,92,0.47,,,0.57,Wunderground v.1.15,2013-10-20 02:55:00,
2013-10-19 23:00:00,41.7,39.5,29.77,West,275,5.0,5.0,92,0.20,,,0.58,Wunderground v.1.15,2013-10-20 03:00:00,
2013-10-19 23:05:00,41.7,39.8,29.77,West,269,4.0,7.0,93,0.16,,,0.59,Wunderground v.1.15,2013-10-20 03:05:00,
2013-10-19 23:15:00,42.5,40.6,29.77,West,259,10.0,14.0,93,0.04,,,0.59,Wunderground v.1.15,2013-10-20 03:15:00,
2013-10-19 23:20:00,41.9,39.7,29.77,WSW,254,9.0,9.0,92,0.15,,,0.61,Wunderground v.1.15,2013-10-20 03:20:00,
2013-10-19 23:25:00,41.8,39.9,29.77,West,275,7.0,9.0,93,0.23,,,0.63,Wunderground v.1.15,2013-10-20 03:25:00,
2013-10-19 23:30:00,41.6,39.7,29.77,West,269,6.0,6.0,93,0.12,,,0.64,Wunderground v.1.15,2013-10-20 03:30:00,
2013-10-19 23:40:00,41.0,39.1,29.77,West,263,1.0,1.0,93,0.38,,,0.67,Wunderground v.1.15,2013-10-20 03:40:00,
2013-10-19 23:45:00,40.7,38.8,29.76,West,263,0.0,1.0,93,0.28,,,0.69,Wunderground v.1.15,2013-10-20 03:45:00,
2013-10-19 23:50:00,40.5,38.6,29.76,West,263,0.0,0.0,93,0.15,,,0.70,Wunderground v.1.15,2013-10-20 03:50:00,
2013-10-19 23:55:00,40.4,38.8,29.76,West,263,0.0,0.0,94,0.07,,,0.70,Wunderground v.1.15,2013-10-20 03:55:00,